AirNav   Air Wisconsin pilot careers
 
 1483 users online  

OR74 Winkle Bar Airport
Grants Pass, Oregon, USA

GOING TO GRANTS PASS?


FAA INFORMATION EFFECTIVE 31 JANUARY 2019

Location

FAA Identifier: OR74
Lat/Long: 42-42-05.4030N / 123-48-18.2910W
42-42.090050N / 123-48.304850W
42.7015008 / -123.8050808
(estimated)
Elevation: 450 ft. / 137 m (estimated)
Variation: 18E (1985)
From city: 26 miles NW of GRANTS PASS, OR
Time zone: UTC -8 (UTC -7 during Daylight Saving Time)
Zip code: 97406

Airport Operations

Airport use: Private use. Permission required prior to landing
Activation date: 02/1970
Control tower: no
ARTCC: SEATTLE CENTER
FSS: MC MINNVILLE FLIGHT SERVICE STATION
Attendance: UNATNDD
Wind indicator: no
Segmented circle: no

Nearby radio navigation aids

VOR radial/distance  VOR name  Freq  Var
RBGr195/35.0ROSEBURG VOR/DME108.2020E

 
NDB name  Hdg/Dist  Freq  Var  ID
ROSEBURG192/37.640020ERBG .-. -... --.

Airport Services

Airframe service: NONE
Powerplant service: NONE

Runway Information

Runway NE/SW

Dimensions: 900 x 30 ft. / 274 x 9 m
Surface: turf
RUNWAY NE  RUNWAY SW
Traffic pattern: leftright

Airport Ownership and Management from official FAA records

Ownership: Privately-owned
Owner: WALTER A HAAS JR
Manager: PACIFIC FLIGHTS INC
3650 BIDDLE RD
MEDFORD, OR 97504

Additional Remarks

LOW APCH AROUND BENDS IN RIVER.
PVT ARPT UNSAFE FOR GENERAL USE DUE TO TYPE OF TERRAIN & AIR CURRENTS.
CAUTION--ARPT HAZARDOUS

Instrument Procedures

There are no published instrument procedures at OR74.

Some nearby airports with instrument procedures:

3S8 - Grants Pass Airport (22 nm SE)
KRBG - Roseburg Regional Airport (38 nm NE)
KMFR - Rogue Valley International - Medford Airport (46 nm SE)
KOTH - Southwest Oregon Regional Airport (47 nm NW)
KCEC - Jack Mc Namara Field Airport (59 nm S)
 
Loc | Ops | Rwys | IFR | FBO | Links
Com | Nav | Svcs | Stats | Notes
Area around OR74 (Winkle Bar Airport)
 
Road maps at: MapQuest Bing Google
 
Aerial photo
WARNING: Photo may not be current or correct
Aerial photo of OR74 (Winkle Bar Airport)
Do you have a better or more recent aerial photo of Winkle Bar Airport that you would like to share? If so, please send us your photo.

 
Sectional chart

 
Airport distance calculator
Flying to Winkle Bar Airport? Find the distance to fly.

From to OR74

Sunrise and sunset
Times for 22-Feb-2019
 Local
(UTC-8)
 Zulu
(UTC)
Morning civil twilight06:3414:34
Sunrise07:0315:03
Sunset17:5501:55
Evening civil twilight18:2302:23

Current date and time
Zulu (UTC)  22-Feb-2019 17:44:41
Local (UTC-8)  22-Feb-2019 09:44:41
 
METAR
KSXT 
20nm E 
221656Z AUTO 12006KT 10SM CLR M04/M06 A3003 RMK AO2 SLP209 T10391061
K3S8 
22nm SE 
221735Z AUTO 00000KT 1/2SM BR OVC002 M02/M03 A3020 RMK AO2
K4S1 
32nm SW 
221735Z AUTO 07010KT 5SM HZ CLR 05/00 A3015 RMK AO1
3S4 
36nm S 
SuperAWOS
221655Z AUTO 00000KT 10SM M01/M01 A3014
KRBG 
38nm NE 
221741Z AUTO 00000KT 8SM FEW003 BKN095 00/M01 A3018 RMK AO2 T00001006
TAF
KRBG 
38nm NE 
221138Z 2212/2312 00000KT P6SM BKN004 FM221500 00000KT 3SM BR OVC004 FM221700 VRB03KT P6SM SCT010 BKN080 OVC150 FM230900 36001KT 3SM -RA OVC015
KMFR 
46nm SE 
221138Z 2212/2312 36003KT P6SM SKC FM221800 VRB03KT P6SM FEW008 BKN080 OVC150 FM230600 34002KT P6SM OVC100
NOTAMs
Click for the latest NOTAMs
NOTAMs are issued by the DoD/FAA and will open in a separate window not controlled by AirNav.

 

 
 

Would you like to see your business listed on this page?

 If your business provides an interesting product or service to pilots, flight crews, aircraft, or users of the Winkle Bar Airport, you should consider listing it here.  To start the listing process, click on the button below
 
Add a business
 

Other Pages about Winkle Bar Airport

Update a link
 
Copyright © AirNav, LLC. All rights reserved. Privacy Policy  Contact